1379635230884,0.854633
1379635290884,0.852780
1379635350884,0.854422
1379635410884,0.857483
1379635470884,0.847326
1379635530884,0.851565
1379635590884,0.857731
1379635650884,0.859001
1379635710884,0.845998
1379635770884,0.851369
1379635830884,0.846500
1379635890884,0.851997
1379635950884,0.852744
1379636010884,0.852008
1379636070884,0.855629
1379636130884,0.844772
1379636190884,0.846075
1379636250884,0.849107
1379636310884,0.852545
1379636370884,0.849795
1379636430884,0.843248
1379636490884,0.846500
1379636550884,0.844708
1379636610884,0.841611
1379636670884,0.853175
1379636730884,0.843658
1379636790884,0.840939
1379636850884,0.851519
1379636910884,0.848731
1379636970884,0.842764
1379637030884,0.851382
1379637090884,0.847424
1379637150884,0.850012
1379637210884,0.849909
1379637270884,0.847036
1379637330884,0.847505
1379637390884,0.849469
1379637450884,0.844726
1379637510884,0.847644
1379637570884,0.843835
1379637630884,0.841651
1379637690884,0.842749
1379637750884,0.844123
1379637810884,0.842101
1379637870884,0.845485
1379637930884,0.840442
1379637990884,0.856999
1379638050884,0.843768
1379638110884,0.853188
1379638170884,0.848803
1379638230884,0.846620
1379638290884,0.842746
1379638350884,0.845469
1379638410884,0.838243
1379638470884,0.851776
1379638530884,0.842324
1379638590884,0.845449
1379638650884,0.847224
1379638710884,0.841396
1379638770884,0.858113
1379638830896,0.840570
1379638890896,0.853570
1379638950896,0.848798
1379639010896,0.852103
1379639070896,0.843655
1379639130896,0.845713
1379639190896,0.840425
1379639250896,0.844808
1379639310896,0.837710
1379639370896,0.844692
1379639430896,0.845501
1379639490896,0.843582
1379639550896,0.846203
1379639610896,0.844017
1379639670896,0.850797
1379639730896,0.846307
1379639790896,0.844431
1379639850896,0.839603
1379639910896,0.844673
1379639970896,0.849250
1379640030896,0.843633
1379640090896,0.842913
1379640150896,0.845062
1379640210896,0.846869
1379640270896,0.846862
1379640330896,0.852713
1379640390896,0.843799
1379640450896,0.854804
1379640510896,0.839979
1379640570896,0.851554
1379640630896,0.850570
1379640690896,0.847193
1379640750896,0.853878
1379640810896,0.851573
1379640870896,0.847598
1379640930896,0.848666
1379640990896,0.846024
1379641050896,0.846492
1379641110896,0.846996
1379641170896,0.847482
1379641230896,0.846548
1379641290896,0.837045
1379641350896,0.846603
1379641410896,0.846461
1379641470896,0.839525
1379641530896,0.844938
1379641590896,0.841649
1379641650896,0.848169
1379641710896,0.846169
1379641770896,0.849026
1379641830896,0.839263
1379641890896,0.841861
1379641950896,0.849613
1379642010896,0.845286
1379642070896,0.849008
1379642130896,0.844407
1379642190896,0.853579
1379642250896,0.838201
1379642310896,0.845537
1379642370896,0.841591
1379642430907,0.840793
1379642490907,0.844161
1379642550907,0.846732
1379642610907,0.838114
1379642670907,0.844726
1379642730907,0.849952
1379642790907,0.845643
1379642850907,0.848025
1379642910907,0.840130
1379642970907,0.843648
1379643030907,0.842276
1379643090907,0.842795
1379643150907,0.842558
1379643210907,0.856325
1379643270907,0.852598
1379643330907,0.848646
1379643390907,0.853537
1379643450907,0.849552
1379643510907,0.845709
1379643570907,0.848698
1379643630907,0.848279
1379643690907,0.839755
1379643750907,0.845570
1379643810907,0.845462
1379643870907,0.850195
1379643930907,0.847375
1379643990907,0.838868
1379644050907,0.838445
1379644110907,0.847738
1379644170907,0.832951
1379644230907,0.844774
1379644290907,0.840884
1379644350907,0.849100
1379644410907,0.842906
1379644470907,0.849571
1379644530907,0.844012
1379644590907,0.850118
1379644650907,0.843911
1379644710907,0.840564
1379644770907,0.843586
1379644830907,0.844995
1379644890907,0.845383
1379644950907,0.842755
1379645010907,0.843068
1379645070907,0.838047
1379645130907,0.842518
1379645190907,0.839183
1379645250907,0.843230
1379645310907,0.842292
1379645370907,0.844401
1379645430907,0.833439
1379645490907,0.847218
1379645550907,0.841959
1379645610907,0.847263
1379645670907,0.838856
1379645730907,0.836924
1379645790907,0.839112
1379645850907,0.843370
1379645910907,0.842240
1379645970907,0.842371
1379646030918,0.845235
1379646090918,0.840479
1379646150918,0.845503
1379646210918,0.837066
1379646270918,0.844144
1379646330918,0.843234
1379646390918,0.843278
1379646450918,0.846080
1379646510918,0.848301
1379646570918,0.851710
1379646630918,0.843544
1379646690918,0.844784
1379646750918,0.848569
1379646810918,0.850969
1379646870918,0.849982
1379646930918,0.844567
1379646990918,0.843885
1379647050918,0.849338
1379647110918,0.848450
1379647170918,0.850802
1379647230918,0.851573
1379647290918,0.851659
1379647350918,0.853860
1379647410918,0.847319
1379647470918,0.852038
1379647530918,0.855912
1379647590918,0.847273
1379647650918,0.846416
1379647710918,0.845866
1379647770918,0.844720
1379647830918,0.846043
1379647890918,0.851073
1379647950918,0.840724
1379648010918,0.842929
1379648070918,0.843763
1379648130918,0.833447
1379648190918,0.840806
1379648250918,0.839725
1379648310918,0.846566
1379648370918,0.836161
1379648430918,0.847173
1379648490918,0.837347
1379648550918,0.840176
1379648610918,0.846347
1379648670918,0.844341
1379648730918,0.849027
1379648790918,0.844024
1379648850918,0.843423
1379648910918,0.847431
1379648970918,0.845164
1379649030918,0.843943
1379649090918,0.847947
1379649150918,0.855993
1379649210918,0.850204
1379649270918,0.848359
1379649330918,0.844206
1379649390918,0.838050
1379649450918,0.844432
1379649510918,0.850610
1379649570918,0.838819
1379649630930,0.839395
1379649690930,0.845388
1379649750930,0.847898
1379649810930,0.841747
1379649870930,0.837965
1379649930930,0.847334
1379649990930,0.840510
1379650050930,0.847765
1379650110930,0.836641
1379650170930,0.838002
1379650230930,0.847766
1379650290930,0.837497
1379650350930,0.843471
1379650410930,0.839675
1379650470930,0.846891
1379650530930,0.848957
1379650590930,0.861613
1379650650930,0.846629
1379650710930,0.862016
1379650770930,0.862519
1379650830930,0.868348
1379650890930,0.864250
1379650950930,0.858898
1379651010930,0.852876
1379651070930,0.859604
1379651130930,0.856340
1379651190930,0.860032
1379651250930,0.862428
1379651310930,0.867629
1379651370930,0.863586
1379651430930,0.866569
1379651490930,0.873519
1379651550930,0.866437
1379651610930,0.865019
1379651670930,0.864401
1379651730930,0.866088
1379651790930,0.861109
1379651850930,0.865247
1379651910930,0.864001
1379651970930,0.874998
1379652030930,0.867812
1379652090930,0.866050
1379652150930,0.871412
1379652210930,0.867119
1379652270930,0.863408
1379652330930,0.862176
1379652390930,0.860089
1379652450930,0.862816
1379652510930,0.865385
1379652570930,0.862694
1379652630930,0.860264
1379652690930,0.857945
1379652750930,0.854359
1379652810930,0.858710
1379652870930,0.855706
1379652930930,0.865847
1379652990930,0.861102
1379653050930,0.861744
1379653110930,0.859735
1379653170930,0.865406
1379653230941,0.861262
1379653290941,0.854938
1379653350941,0.853810
1379653410941,0.855449
1379653470941,0.855980
1379653530941,0.851422
1379653590941,0.847464
1379653650941,0.861665
1379653710941,0.856693
1379653770941,0.854084
1379653830941,0.856457
1379653890941,0.855624
1379653950941,0.858932
1379654010941,0.851504
1379654070941,0.854656
1379654130941,0.860496
1379654190941,0.854206
1379654250941,0.846739
1379654310941,0.857223
1379654370941,0.849118
1379654430941,0.852177
1379654490941,0.854820
1379654550941,0.847831
1379654610941,0.850169
1379654670941,0.852846
1379654730941,0.856801
1379654790941,0.855909
1379654850941,0.845676
1379654910941,0.855140
1379654970941,0.857302
1379655030941,0.852896
1379655090941,0.869678
1379655150941,0.852347
1379655210941,0.848948
1379655270941,0.852903
1379655330941,0.855876
1379655390941,0.852079
1379655450941,0.856682
1379655510941,0.845066
1379655570941,0.852961
1379655630941,0.859042
1379655690941,0.857104
1379655750941,0.851822
1379655810941,0.851205
1379655870941,0.853495
1379655930941,0.850244
1379655990941,0.848106
1379656050941,0.848754
1379656110941,0.854195
1379656170941,0.848997
1379656230941,0.846486
1379656290941,0.852141
1379656350941,0.847685
1379656410941,0.858593
1379656470941,0.853622
1379656530941,0.855115
1379656590941,0.845186
1379656650941,0.852023
1379656710941,0.843122
1379656770941,0.838215
1379656830952,0.847287
1379656890952,0.842968
1379656950952,0.848004
1379657010952,0.839984
1379657070952,0.840014
1379657130952,0.843186
1379657190952,0.851442
1379669790983,0.840611
1379669850983,0.843288
1379669910983,0.846915
1379669970983,0.849747
1379670030983,0.846114
1379670090983,0.837007
1379670150983,0.831847
1379670210983,0.836394
1379670270983,0.842969
1379670330983,0.841560
1379670390983,0.840858
1379670450983,0.839385
1379670510983,0.846498
1379670570983,0.845518
1379670630983,0.833642
1379670690983,0.840797
1379670750983,0.841642
1379670810983,0.837453
1379670870983,0.840215
1379670930983,0.844827
1379670990983,0.835862
1379671050983,0.847736
1379671110983,0.845130
1379671170983,0.854290
1379671230994,0.859115
1379671290994,0.872985
1379671350994,0.894721
1379671410994,0.891568
1379671470995,0.888968
1379671530995,0.881719
1379671590995,0.891755
1379671650995,0.883912
1379671710995,0.881274
1379671770994,0.881774
1379671830995,0.876487
1379671890995,0.872499
1379671950995,0.880969
1379672010995,0.876886
1379672070995,0.879882
1379672130995,0.876110
1379672190995,0.879371
1379672250995,0.877576
1379672310995,0.874958
1379672370995,0.877527
1379672430994,0.881909
1379672490994,0.863840
1379672550994,0.873254
1379672610994,0.868593
1379672670994,0.869662
1379672730994,0.858715
1379672790994,0.867811
1379672850995,0.861890
1379672910995,0.864520
1379672970995,0.863995
1379673030995,0.852260
1379673090995,0.864990
1379673150995,0.855224
1379673210995,0.860826
1379673270995,0.858936
1379673330995,0.858078
1379673390995,0.853812
1379673450995,0.852112
1379673510995,0.853508
1379673570995,0.849164
1379673630995,0.866567
1379673690995,0.850222
1379673750995,0.851093
1379673810994,0.854339
1379673870994,0.854212
1379673930994,0.845763
1379673990994,0.854290
1379674050994,0.846016
1379674110994,0.847786
1379674170995,0.852862
1379674230995,0.849530
1379674290995,0.846798
1379674350995,0.847800
1379674410995,0.853930
1379674470994,0.848808
1379674530995,0.848984
1379674590995,0.844544
1379674650995,0.844350
1379674710995,0.846612
1379674770995,0.849232
1379674831006,0.853236
1379674891006,0.844289
1379674951006,0.847983
1379675011006,0.842948
1379675071006,0.848991
1379675131006,0.846043
1379675191006,0.847221
1379675251006,0.848908
1379675311006,0.843287
1379675371006,0.842766
1379675431006,0.840304
1379675491006,0.834141
1379675551006,0.843131
1379675611006,0.851357
1379675671006,0.849487
1379675731006,0.836169
1379675791006,0.849874
1379675851006,0.842435
1379675911006,0.841428
1379675971006,0.841947
1379676031006,0.846816
1379676091006,0.845092
1379676151006,0.837042
1379676211006,0.842623
1379676271006,0.848818
1379676331006,0.841327
1379676391006,0.849746
1379676451006,0.841414
1379676511006,0.840760
1379676571006,0.832163
1379676631006,0.849294
1379676691006,0.835456
1379676751006,0.834717
1379676811006,0.846822
1379676871006,0.844038
1379676931006,0.842209
1379676991006,0.845759
1379677051006,0.844755
1379677111006,0.836265
1379677171006,0.836404
1379677231006,0.841924
1379677291006,0.846186
1379677351006,0.849551
1379677411006,0.858150
1379677471006,0.872490
1379677531006,0.876551
1379677591006,0.898217
1379677651006,0.922421
1379677711006,0.919692
1379677771006,0.928408
1379677831006,0.919338
1379677891006,0.913910
1379677951006,0.915394
1379678011006,0.938402
1379678071006,0.937563
1379678131006,0.956941
1379678191006,0.946599
1379678251006,0.942335
1379678311006,0.945337
1379678371006,0.939226
1379678431018,0.938730
1379678491018,0.932416
1379678551018,0.930749
1379678611018,0.918112
1379678671018,0.915397
1379678731018,0.915234
1379678791018,0.923959
1379678851018,0.924236
1379678911018,0.917189
1379678971018,0.924214
1379679031018,0.924110
1379679091018,0.930176
1379679151018,0.935757
1379679211018,0.925875
1379679271018,0.930227
1379679331018,0.930738
1379679391018,0.931231
1379679451018,0.928833
1379679511018,0.935130
1379679571018,0.935324
1379679631018,0.938798
1379679691018,0.935845
1379679751018,0.937931
1379679811018,0.924435
1379679871018,0.934461
1379679931018,0.921073
1379679991018,0.926164
1379680051018,0.922635
1379680111018,0.925123
1379680171018,0.926251
1379680231018,0.918566
1379680291018,0.911629
1379680351018,0.913555
1379680411018,0.923699
1379680471018,0.908065
1379680531018,0.913295
1379680591018,0.903734
1379680651018,0.900250
1379680711018,0.909836
1379680771018,0.902909
1379680831018,0.903892
1379680891018,0.897273
1379680951018,0.891807
1379681011018,0.893563
1379681071018,0.895950
1379681131018,0.893103
1379681191018,0.896971
1379681251018,0.892943
1379681311018,0.904468
1379681371018,0.912017
1379681431018,0.922954
1379681491018,0.934525
1379681551018,0.936600
1379681611018,0.930340
1379681671018,0.918883
1379681731018,0.916033
1379681791018,0.911678
1379681851018,0.911924
1379681911018,0.917787
1379681971018,0.919146
1379682031030,0.916724
1379682091030,0.917670
1379682151030,0.936650
1379682211030,0.948824
1379682271030,0.939475
1379682331030,0.941465
1379682391030,0.938329
1379682451030,0.943510
1379682511030,0.934265
1379682571030,0.933801
1379682631030,0.936055
1379682691030,0.932160
1379682751030,0.935926
1379682811030,0.930287
1379682871030,0.939513
1379682931030,0.927374
1379682991030,0.923050
1379683051030,0.919471
1379683111030,0.919197
1379683171030,0.912868
1379683231030,0.912079
1379683291030,0.910233
1379683351030,0.901466
1379683411030,0.901089
1379683471030,0.899090
1379683531030,0.904141
1379683591030,0.897657
1379683651030,0.897418
1379683711030,0.888163
1379683771030,0.895673
1379683831030,0.898109
1379683891030,0.895128
1379683951030,0.886493
1379684011030,0.887965
1379684071030,0.884040
1379684131030,0.878136
1379684191030,0.880767
1379684251030,0.878448
1379684311030,0.872068
1379684371030,0.867856
1379684431030,0.874300
1379684491030,0.871462
1379684551030,0.871651
1379684611030,0.876171
1379684671030,0.867698
1379684731030,0.865712
1379684791030,0.875676
1379684851030,0.870110
1379684911030,0.870411
1379684971030,0.871471
1379685031030,0.870344
1379685091030,0.865651
1379685151030,0.855076
1379685211030,0.851872
1379685271030,0.853908
1379685331030,0.857607
1379685391030,0.860909
1379685451030,0.851429
1379685511030,0.853812
1379685571030,0.854694
1379685631042,0.845883
1379685691042,0.847489
1379685751042,0.855423
1379685811042,0.845067
1379685871042,0.853353
1379685931042,0.849316
1379685991042,0.854031
1379686051042,0.845863
1379686111042,0.849806
1379686171042,0.846742
1379686231042,0.855712
1379686291042,0.847157
1379686351042,0.852022
1379686411042,0.851945
1379686471042,0.854618
1379686531042,0.852050
1379686591042,0.848121
1379686651042,0.858950
1379686711042,0.852809
1379686771042,0.849350
1379686831042,0.858572
1379686891042,0.851962
1379686951042,0.852398
1379687011042,0.857014
1379687071042,0.854823
1379687131042,0.852239
1379687191042,0.847620
1379687251042,0.844850
1379687311042,0.850029
1379687371042,0.849970
1379687431042,0.846341
1379687491042,0.852569
1379687551042,0.842632
1379687611042,0.843867
1379687671042,0.839094
1379687731042,0.847340
1379687791042,0.847635
1379687851042,0.850841
1379687911042,0.840733
1379687971042,0.856115
1379688031042,0.852962
1379688091042,0.845389
1379688151042,0.845238
1379688211042,0.838553
1379688271042,0.850034
1379688331042,0.844389
1379688391042,0.857295
1379688451042,0.842516
1379688511042,0.848630
1379688571042,0.845558
1379688631042,0.845276
1379688691042,0.851623
1379688751042,0.841199
1379688811042,0.843493
1379688871042,0.842185
1379688931042,0.835522
1379688991042,0.843626
1379689051042,0.847420
1379689111042,0.849080
1379689171042,0.843805
1379689231055,0.838473
1379689291055,0.848046
1379689351055,0.846177
1379689411055,0.843403
1379689471055,0.847126
1379689531055,0.834631
1379689591055,0.840623
1379689651055,0.836376
1379689711055,0.841030
1379689771055,0.837215
1379689831055,0.843328
1379689891055,0.840591
1379689951055,0.849359
1379690011055,0.839066
1379690071055,0.848242
1379690131055,0.849264
1379690191055,0.843958
1379690251055,0.845059
1379690311055,0.843837
1379690371055,0.845705
1379690431055,0.848038
1379690491055,0.842656
1379690551055,0.845163
1379690611055,0.849405
1379690671055,0.849188
1379690731055,0.843175
1379690791055,0.842350
1379690851055,0.842118
1379690911055,0.843946
1379690971055,0.848823
1379691031055,0.837989
1379691091055,0.835727
1379691151055,0.846612
1379691211055,0.836138
1379691271055,0.840633
1379691331055,0.831613
1379691391055,0.841186
1379691451055,0.836328
1379691511055,0.838961
1379691571055,0.841634
1379691631055,0.842369
1379691691055,0.833385
1379691751055,0.838435
1379691811055,0.835113
1379691871055,0.840618
1379691931055,0.831225
1379691991055,0.841372
1379692051055,0.838327
1379692111055,0.835636
1379692171055,0.838615
1379692231055,0.834111
1379692291055,0.839170
1379692351055,0.833894
1379692411055,0.831090
1379692471055,0.837189
1379692531055,0.841393
1379692591055,0.838442
1379692651055,0.833299
1379692711055,0.835370
1379692771055,0.829307
1379692831068,0.837280
1379692891068,0.836816
1379692951068,0.841552
1379693011068,0.839074
1379693071068,0.831430
1379693131068,0.835303
1379693191068,0.840749
1379693251068,0.836599
1379693311068,0.834190
1379693371068,0.840817
1379693431068,0.832346
1379693491068,0.843283
1379693551068,0.834768
1379693611068,0.834239
1379693671068,0.833505
1379693731068,0.835355
1379693791068,0.831188
1379693851068,0.840242
1379693911068,0.835963
1379693971068,0.833287
1379694031068,0.829646
1379694091068,0.835943
1379694151068,0.837554
1379694211068,0.835291
1379694271068,0.833894
1379694331068,0.829158
1379694391068,0.838234
1379694451068,0.841100
1379694511068,0.842135
1379694571068,0.848022
1379694631068,0.839472
1379694691068,0.841995
1379694751068,0.843072
1379694811068,0.845582
1379694871068,0.843953
1379694931068,0.839499
1379694991068,0.833570
1379695051068,0.834985
1379695111068,0.839810
1379695171068,0.841509
1379695231068,0.831365
1379695291068,0.846719
1379695351068,0.834847
1379695411068,0.845345
1379695471068,0.846545
1379695531068,0.845741
1379695591068,0.854425
1379695651068,0.853524
1379695711068,0.847522
1379695771068,0.855973
1379695831068,0.852325
1379695891068,0.849391
1379695951068,0.853589
1379696011068,0.853164
1379696071068,0.870176
1379696131068,0.866914
1379696191068,0.875595
1379696251068,0.889870
1379696311068,0.884644
1379696371068,0.891334
1379696431081,0.894375
1379696491081,0.882265
1379696551081,0.882320
1379696611081,0.883565
1379696671081,0.885227
1379696731081,0.878939
1379696791081,0.890184
1379696851081,0.888243
1379696911081,0.886814
1379696971081,0.883147
1379697031081,0.889637
1379697091081,0.885295
1379697151081,0.890876
1379697211081,0.885058
1379697271081,0.884642
1379697331081,0.886364
1379697391081,0.884137
1379697451081,0.883350
1379697511081,0.874870
1379697571081,0.880023
1379697631081,0.874002
1379697691081,0.870027
1379697751081,0.867321
1379697811081,0.873902
1379697871081,0.862388
1379697931081,0.861866
1379697991081,0.868302
1379698051081,0.863437
1379698111081,0.867501
1379698171081,0.863636
1379698231081,0.856261
1379698291081,0.854159
1379698351081,0.856978
1379698411081,0.854966
1379698471081,0.854237
1379698531081,0.863542
1379698591081,0.852980
1379698651081,0.859198
1379698711081,0.853003
1379698771081,0.860399
1379698831081,0.852050
1379698891081,0.853532
1379698951081,0.854649
1379699011081,0.855013
1379699071081,0.849873
1379699131081,0.851583
1379699191081,0.856287
1379699251081,0.846369
1379699311081,0.856684
1379699371081,0.852647
1379699431081,0.849135
1379699491081,0.857691
1379699551081,0.851933
1379699611081,0.854703
1379699671081,0.845473
1379699731081,0.845224
1379699791081,0.856838
1379699851081,0.859345
1379699911081,0.850700
1379699971081,0.859221
1379700031094,0.857910
1379700091094,0.850540
1379700151094,0.858115
1379700211094,0.845525
1379700271094,0.852243
1379700331094,0.851523
1379700391094,0.854870
1379700451094,0.853079
1379700511094,0.851988
1379700571094,0.855000
1379700631094,0.851297
1379700691094,0.851292
1379700751094,0.859890
1379700811094,0.857401
1379700871094,0.850045
1379700931094,0.852089
1379700991094,0.851361
1379701051094,0.846095
1379701111094,0.853113
1379701171094,0.852051
1379701231094,0.846494
1379701291094,0.854253
1379701351094,0.855414
1379701411094,0.852325
1379701471094,0.847186
1379701531094,0.848062
1379701591094,0.844107
1379701651094,0.852472
1379701711094,0.845934
1379701771094,0.840816
1379701831094,0.851927
1379701891094,0.853462
1379701951094,0.843270
1379702011094,0.842911
1379702071094,0.844328
1379702131094,0.843970
1379702191094,0.840230
1379702251094,0.851208
1379702311094,0.843042
1379702371094,0.845134
1379702431094,0.837401
1379702491094,0.840694
1379702551094,0.843358
1379702611094,0.836826
1379702671094,0.835751
1379702731094,0.844213
1379702791094,0.845449
1379702851094,0.841313
1379702911094,0.841219
1379702971094,0.840678
1379703031094,0.846093
1379703091094,0.833678
1379703151094,0.848368
1379703211094,0.841169
1379703271094,0.833754
1379703331094,0.845117
1379703391094,0.838534
1379703451094,0.844930
1379703511094,0.843741
1379703571094,0.829614
1379703631107,0.839455
1379703691107,0.836508
1379703751107,0.835648
1379703811107,0.839537
1379703871107,0.837381
1379703931107,0.836239
1379703991107,0.846547
1379704051107,0.841003
1379704111107,0.833720
1379704171107,0.845347
1379704231107,0.842635
1379704291107,0.845281
1379704351107,0.846160
1379704411107,0.847455
1379704471107,0.837676
1379704531107,0.842483
1379704591107,0.837666
1379704651107,0.836592
1379704711107,0.849606
1379704771107,0.838501
1379704831107,0.840272
1379704891107,0.844151
1379704951107,0.842827
1379705011107,0.838720
1379705071107,0.840357
1379705131107,0.854382
1379705191107,0.859906
1379705251107,0.860852
1379705311107,0.849473
1379705371107,0.859202
1379705431107,0.860664
1379705491107,0.854501
1379705551107,0.854386
1379705611107,0.846943
1379705671107,0.850114
1379705731107,0.847707
1379705791107,0.849253
1379705851107,0.847239
1379705911107,0.845704
1379705971107,0.849248
1379706031107,0.841175
1379706091107,0.844236
1379706151107,0.851164
1379706211107,0.841424
1379706271107,0.848034
1379706331107,0.849383
1379706391107,0.849065
1379706451107,0.847880
1379706511107,0.850796
1379706571107,0.858704
1379706631107,0.853905
1379706691107,0.856382
1379706751107,0.866191
1379706811107,0.865517
1379706871107,0.868638
1379706931107,0.862850
1379706991107,0.865573
1379707051107,0.864644
1379707111107,0.854756
1379707171107,0.857983
1379707231120,0.854236
1379707291120,0.854782
1379707351120,0.851142
1379707411120,0.854060
1379707471120,0.858841
1379707531120,0.849368
1379707591120,0.841084
1379707651120,0.852479
1379707711120,0.849765
1379707771120,0.853133
1379707831120,0.845471
1379707891120,0.850997
1379707951120,0.843794
1379708011120,0.848548
1379708071120,0.850864
1379708131120,0.856067
1379708191120,0.842839
1379708251120,0.852661
1379708311120,0.842688
1379708371120,0.844832
1379708431120,0.852976
1379708491120,0.842830
1379708551120,0.846461
1379708611120,0.849051
1379708671120,0.841278
1379708731120,0.847652
1379708791120,0.842640
1379708851120,0.847743
1379708911120,0.849549
1379708971120,0.849664
1379709031120,0.840520
1379709091120,0.845098
1379709151120,0.840043
1379709211120,0.846618
1379709271120,0.841175
1379709331120,0.843637
1379709391120,0.842359
1379709451120,0.840975
1379709511120,0.844896
1379709571120,0.854635
1379709631120,0.842716
1379709691120,0.843061
1379709751120,0.846017
1379709811120,0.842955
1379709871120,0.847771
1379709931120,0.848927
1379709991120,0.851184
1379710051120,0.848991
1379710111120,0.844276
1379710171120,0.847895
1379710231120,0.843309
1379710291120,0.839127